[[{"header":{"parameterUnit":"m.s-1","parameterCategory":1,"la1":30.2992,"la2":30.254,"lo1":-89.0895,"lo2":-89.0443,"dy":0.0025,"dx":0.0025,"nx":19,"ny":19,"refTime":"2026-05-12T03:00:00:Z","depth":0,"parameterNumber":2,"parameterNumberName":"U-component_of_WINDS"},"data":[0,0,0,-4.8709,-4.871,-4.8725,-4.8725,-4.8791,-4.8792,0,0,0,0,0,0,0,0,0,0,0,-4.8731,-4.8733,-4.8709,-4.871,-4.8725,-4.8725,-4.8791,-4.8792,0,0,0,0,0,0,0,0,0,0,0,-4.8731,-4.8732,-4.8734,-4.871,-4.8725,-4.8725,-4.8791,-4.8763,0,0,0,0,0,0,0,0,0,0,-4.874,-4.8787,-4.8732,-4.8734,-4.871,-4.8725,-4.8725,-4.8761,-4.8765,-4.8804,0,-4.8845,0,-4.882,-4.88,-4.88,0,0,0,-4.869,-4.8784,-4.8764,-4.8734,-4.8711,-4.8725,-4.8713,-4.8763,-4.8767,-4.881,-4.8845,-4.8847,-4.8821,-4.88,-4.8801,-4.9092,-4.9094,0,0,-4.8689,-4.8749,-4.8761,-4.8768,-4.8767,-4.8712,-4.8714,-4.8765,-4.8808,-4.8846,-4.8847,-4.8822,-4.8801,-4.8802,-4.909,-4.9092,0,0,0,-4.87,-4.8749,-4.8726,-4.8766,-4.8766,-4.8713,-4.8715,-4.8806,-4.8793,-4.8848,-4.8823,-4.8802,-4.8803,-4.9087,-4.9091,-4.9263,0,0,0,-4.8699,-4.8755,-4.8727,-4.8764,-4.8766,-4.8786,-4.8756,-4.879,-4.8794,-4.8823,-4.8802,-4.8804,-4.9084,-4.9089,-4.9253,-4.9336,0,0,0,-4.8721,-4.8757,-4.8769,-4.8767,-4.8776,-4.8783,-4.8773,-4.8789,-4.878,-4.88,-4.8805,-4.9083,-4.9088,-4.9244,-4.9321,-4.9432,0,0,0,-4.8762,-4.8922,-4.8773,-4.8941,-4.8776,-4.8889,-4.8772,-4.8853,-4.8891,-4.8802,-4.9085,-4.909,-4.9241,-4.9311,-4.9423,-4.9539,-4.9592,0,0,-4.8997,-4.8952,-4.9046,-4.8913,-4.9069,-4.8882,-4.9063,-4.9041,-4.8988,-4.9061,-4.9067,-4.9257,-4.932,-4.943,-4.9863,-4.9906,0,0,0,-4.9141,-4.921,-4.9238,-4.9276,-4.9263,-4.926,-4.9203,-4.9195,-4.9254,-4.9037,-4.9323,-4.9359,-4.9422,-4.9474,-4.9511,-4.9562,-4.9116,-4.9116,-4.9115,-4.956,-4.9484,-4.9635,-4.9562,-4.9601,-4.9541,-4.9567,-4.9546,-4.9457,-4.9527,-4.9549,-4.9821,-4.9885,-4.9911,-4.9966,-4.9601,-4.9602,-4.9602,-4.9603,-4.9899,-4.9986,-4.9864,-4.9967,-4.9886,-4.9973,-4.9922,-4.9857,-4.9927,-4.9797,-4.9848,-4.9717,-4.9961,-5.0004,-4.9615,-4.9613,-4.9611,-4.961,-4.9609,-5.0168,-5.0196,-5.0183,-5.0232,-5.0278,-5.0197,-5.027,-5.0193,-5.0121,-5.0171,-5.0188,-5.0185,-5.0175,-5.0184,-5.0185,-5.0186,-5.0186,-5.0187,-5.0188,-5.0454,-5.0433,-5.0503,-5.0503,-5.0518,-5.0529,-5.0471,-5.0484,-5.048,-5.0418,-5.0418,-5.0325,-4.9997,-4.9919,-5.0202,-5.0199,-5.0198,-5.0196,-5.0195,-5.0831,-5.0733,-5.0843,-5.0858,-5.0852,-5.0905,-5.0804,-5.0838,-5.0838,-5.0877,-5.0772,-5.0542,-5.0491,-5.0462,-5.0396,-5.0786,-5.0786,-5.0786,-5.0786,-5.1061,-5.1026,-5.1121,-5.1152,-5.1172,-5.1092,-5.1221,-5.1178,-5.1119,-5.1114,-5.1046,-5.0951,-5.0925,-5.089,-5.0851,-5.0789,-5.127,-5.1271,-5.1271,-5.129,-5.1254,-5.1378,-5.1317,-5.1306,-5.13,-5.1419,-5.1461,-5.1372,-5.1289,-5.111,-5.109,-5.0936,-5.0889,-5.0806,-5.0747,-5.0631,0,0]},{"header":{"parameterUnit":"m.s-1","parameterCategory":1,"la1":30.2992,"la2":30.254,"lo1":-89.0895,"lo2":-89.0443,"dy":0.0025,"dx":0.0025,"nx":19,"ny":19,"refTime":"2026-05-12T03:00:00:Z","depth":0,"parameterNumber":3,"parameterNumberName":"V-component_of_WINDS"},"data":[0,0,0,-3.2379,-3.2381,-3.2478,-3.2479,-3.2608,-3.2609,0,0,0,0,0,0,0,0,0,0,0,-3.2354,-3.2355,-3.2379,-3.2381,-3.2478,-3.2479,-3.2608,-3.2609,0,0,0,0,0,0,0,0,0,0,0,-3.2353,-3.2354,-3.2356,-3.2382,-3.2478,-3.2479,-3.2608,-3.2532,0,0,0,0,0,0,0,0,0,0,-3.2437,-3.2417,-3.2354,-3.2356,-3.2382,-3.2478,-3.2479,-3.2529,-3.2537,-3.2566,0,-3.2594,0,-3.2604,-3.2618,-3.2619,0,0,0,-3.2379,-3.241,-3.2433,-3.2356,-3.2383,-3.2478,-3.2434,-3.2533,-3.2543,-3.2578,-3.2595,-3.26,-3.2606,-3.2619,-3.262,-3.2797,-3.2798,0,0,-3.2373,-3.2373,-3.2427,-3.244,-3.2425,-3.2431,-3.2437,-3.2539,-3.2559,-3.2596,-3.2603,-3.2608,-3.262,-3.2621,-3.2796,-3.2797,0,0,0,-3.236,-3.2369,-3.239,-3.2435,-3.2452,-3.2434,-3.2441,-3.2554,-3.2561,-3.2604,-3.2609,-3.2621,-3.2623,-3.2795,-3.2797,-3.2843,0,0,0,-3.2356,-3.2361,-3.2388,-3.2388,-3.245,-3.2504,-3.2453,-3.2553,-3.2565,-3.2609,-3.2621,-3.2624,-3.2794,-3.2796,-3.284,-3.2865,0,0,0,-3.2346,-3.236,-3.2376,-3.2388,-3.243,-3.2503,-3.2515,-3.2556,-3.2568,-3.2619,-3.2624,-3.2794,-3.2796,-3.2837,-3.286,-3.2911,0,0,0,-3.2335,-3.2416,-3.2376,-3.2468,-3.2429,-3.2531,-3.2514,-3.259,-3.2639,-3.2622,-3.2794,-3.2797,-3.2836,-3.2857,-3.2908,-3.2954,-3.2974,0,0,-3.2437,-3.2429,-3.2483,-3.245,-3.2558,-3.2516,-3.2631,-3.2676,-3.2681,-3.2758,-3.2762,-3.2841,-3.286,-3.2911,-3.3083,-3.3098,0,0,0,-3.2515,-3.2554,-3.2583,-3.2629,-3.2665,-3.2698,-3.2725,-3.2742,-3.2807,-3.2721,-3.2873,-3.2885,-3.2914,-3.2937,-3.295,-3.2975,-3.2807,-3.2807,-3.2806,-3.266,-3.2661,-3.275,-3.2763,-3.2808,-3.2835,-3.2872,-3.2898,-3.2887,-3.2923,-3.2946,-3.305,-3.3076,-3.3086,-3.3112,-3.2971,-3.2971,-3.2971,-3.2971,-3.2809,-3.2864,-3.2846,-3.2926,-3.2927,-3.2994,-3.3023,-3.3012,-3.3074,-3.3033,-3.306,-3.3014,-3.3103,-3.3126,-3.2975,-3.2974,-3.2974,-3.2973,-3.2973,-3.2904,-3.2931,-3.2949,-3.3015,-3.3066,-3.3075,-3.3136,-3.3134,-3.3133,-3.3159,-3.3183,-3.3182,-3.3181,-3.3171,-3.3171,-3.3171,-3.3172,-3.3172,-3.3172,-3.2995,-3.3014,-3.3065,-3.3109,-3.3138,-3.3176,-3.3202,-3.323,-3.3261,-3.3255,-3.3255,-3.324,-3.3111,-3.3078,-3.3178,-3.3177,-3.3176,-3.3176,-3.3175,-3.3147,-3.3112,-3.3191,-3.3219,-3.327,-3.332,-3.3317,-3.3374,-3.3397,-3.3426,-3.3405,-3.331,-3.3301,-3.329,-3.3263,-3.3405,-3.3405,-3.3405,-3.3405,-3.3227,-3.3221,-3.3301,-3.3347,-3.3392,-3.3396,-3.3484,-3.3505,-3.3521,-3.3535,-3.3514,-3.3478,-3.3468,-3.3465,-3.3451,-3.3425,-3.3605,-3.3605,-3.3605,-3.3319,-3.3318,-3.3394,-3.3409,-3.3448,-3.3481,-3.3563,-3.3616,-3.3627,-3.3613,-3.3546,-3.3537,-3.3479,-3.346,-3.3446,-3.3424,-3.3377,0,0]}]]